RH
33 26 21 18 17 18 22 17 15 21 19 20 23 27 24 17 16 13 13 13 18 26 31 40 76 100 100 100 96 52 35 32 34 53 70 81 89 91 85 77 73 69 70 80
71 39 26 22 20 18 17 15 14 15 16 18 19 20 13 10 10 10 8 7 7 7 8 15 20 28 60 98 100 100 100 72 39 33 35 59 74 87 94 96 93 87 85 76
92 82 74 58 37 26 22 19 17 17 17 16 17 15 10 12 11 11 8 8 10 10 8 7 8 12 19 28 57 94 100 100 100 88 60 46 46 71 89 99 100 100 96 94
82 83 85 82 82 77 49 30 26 24 24 24 22 17 15 16 15 13 12 10 12 15 16 13 11 8 8 17 32 36 59 93 100 100 100 89 68 74 85 93 100 100 100 100
81 81 94 88 87 88 85 86 83 69 52 41 36 30 16 17 18 16 11 9 10 13 16 19 17 14 11 11 28 79 91 86 80 96 100 100 100 92 87 81 92 100 100 100
86 76 97 98 100 97 91 92 89 89 91 88 78 65 39 24 18 13 9 9 9 11 13 15 15 17 18 16 17 34 84 98 100 100 100 100 100 100 100 96 100 100 100 100
83 81 96 100 100 100 100 93 90 88 87 85 84 79 74 61 31 20 15 12 11 10 9 9 8 10 16 21 24 18 24 62 85 93 99 100 100 100 100 100 100 96 91 96
87 81 89 100 100 100 100 100 100 98 93 91 88 85 82 80 74 61 47 35 24 18 14 11 9 9 8 10 17 23 26 22 48 69 87 99 98 100 100 100 100 100 100 100
97 96 100 100 100 99 100 100 98 96 95 94 90 89 87 84 80 77 69 60 44 29 19 13 11 10 10 9 9 10 25 32 31 26 45 65 78 92 94 100 100 100 100 100
95 98 100 100 100 96 93 88 86 87 85 84 84 84 86 84 79 78 72 65 59 42 22 15 13 12 11 12 11 11 11 13 33 37 34 28 29 56 66 80 93 100 100 100
95 99 100 100 100 98 94 92 90 89 88 87 84 82 83 82 78 76 72 66 50 30 20 17 17 16 14 15 15 14 14 14 12 18 41 41 36 30 28 40 63 73 84 93
88 82 79 74 61 46 39 35 33 32 30 29 30 36 37 37 34 33 29 27 25 23 22 20 20 19 16 16 15 14 14 14 14 15 13 41 47 44 42 38 31 32 44 56
30 29 31 30 30 30 29 29 30 31 32 36 33 34 34 36 33 30 29 29 29 28 26 26 26 23 18 16 14 13 12 11 12 13 17 16 50 56 53 57 54 45 39 31
31 31 34 35 37 38 39 40 40 38 34 30 27 26 25 26 27 27 28 30 32 31 29 29 26 22 16 15 14 14 13 13 12 14 19 17 27 65 66 68 66 65 50 43
39 41 42 43 44 45 46 47 50 51 51 51 50 46 40 36 32 30 28 26 26 25 23 24 23 21 20 20 19 18 16 16 14 15 19 20 16 49 78 78 79 73 68 57
48 50 52 54 55 55 56 56 58 60 59 61 63 63 63 62 58 52 45 40 36 34 31 29 26 23 24 23 21 20 19 18 17 16 16 18 18 19 81 89 88 87 79 69
59 63 65 68 69 74 75 76 74 75 75 75 75 76 76 76 77 74 70 65 57 47 44 42 33 28 30 26 24 25 29 33 32 24 19 19 20 20 44 93 97 100 100 89
74 77 78 79 81 86 92 94 97 96 94 95 95 91 88 85 83 82 79 77 74 69 59 58 54 40 39 42 42 48 49 47 43 39 36 25 24 25 34 95 100 100 100 94
91 93 94 95 93 94 99 100 100 100 100 100 100 100 99 96 96 95 92 89 84 88 76 71 74 87 89 80 75 75 71 65 57 51 44 38 33 31 45 100 100 100 100 98
100 100 100 99 100 100 100 100 100 100 100 100 100 100 100 100 100 100 100 99 91 97 98 91 89 91 94 94 86 83 77 71 68 63 55 46 41 36 45 100 100 100 100 99
100 100 97 97 100 100 100 100 100 100 100 100 100 100 100 100 100 100 100 100 97 99 100 100 100 100 100 96 91 88 80 72 66 61 56 50 43 42 44 100 100 100 100 100
83 74 74 76 85 99 99 100 100 100 100 100 100 100 100 100 100 100 100 100 100 100 100 100 100 100 98 100 94 87 82 77 68 59 52 47 45 45 45 94 100 100 100 100
42 41 41 42 45 54 68 72 84 93 100 100 100 100 100 100 100 100 100 100 100 100 100 100 100 100 94 100 97 85 86 78 67 57 52 45 44 47 48 77 100 100 100 100
41 43 44 46 47 48 51 56 58 62 67 79 86 88 97 100 100 100 100 100 100 100 100 100 100 99 96 100 100 94 89 81 73 68 54 41 41 47 51 75 100 100 100 100
45 48 52 57 60 61 63 66 68 70 70 71 74 76 81 88 100 100 100 100 100 100 100 100 100 99 98 99 100 98 92 85 80 78 59 48 45 49 55 89 100 100 100 100
41 43 48 56 64 71 73 73 74 76 77 80 82 81 87 89 90 99 100 100 100 100 100 100 100 100 98 97 98 99 96 88 83 81 62 56 55 58 65 99 100 100 100 100
38 37 38 46 55 67 76 77 76 76 74 73 76 80 88 93 97 97 100 100 100 100 100 100 99 100 100 97 98 98 96 87 84 79 61 57 64 68 78 100 100 100 100 100
Wind_Speed
13 16 17 17 19 21 24 26 30 34 37 38 39 40 39 39 40 41 44 46 49 53 55 57 58 59 58 58 59 58 56 58 61 66 67 68 70 70 70 70 70 70 71 71
10 11 13 14 15 17 19 22 25 26 29 31 32 33 33 34 34 35 38 40 44 49 54 58 60 61 62 63 62 62 63 62 60 61 63 67 69 69 70 72 72 72 72 72
12 11 12 14 14 16 17 18 20 22 24 26 27 30 31 31 32 32 34 34 34 37 41 46 51 58 62 65 66 66 65 65 66 64 63 64 66 67 70 70 70 71 71 71
12 13 13 13 14 15 17 18 20 23 23 25 27 31 31 30 31 31 31 31 30 29 30 33 37 44 52 58 61 65 68 68 67 68 68 66 65 66 67 68 69 71 71 70
14 14 12 13 14 15 17 19 21 23 25 27 29 31 34 33 32 32 32 32 31 30 30 31 32 34 38 46 56 59 59 61 65 67 66 67 67 67 66 65 66 68 68 68
15 14 11 13 14 16 17 18 20 23 26 28 30 29 32 34 33 33 33 32 32 33 32 32 34 34 35 36 44 56 62 62 60 58 59 62 62 63 65 67 66 66 64 65
14 14 12 15 15 17 18 19 21 22 25 28 30 32 32 32 32 34 32 32 33 33 33 34 34 35 37 38 38 41 54 66 63 61 59 56 55 58 59 61 63 64 64 66
12 13 14 15 17 19 21 21 23 24 25 27 29 30 33 33 33 33 34 35 35 35 35 36 36 35 36 39 41 43 42 48 64 66 64 64 64 62 58 58 58 58 60 60
12 14 18 19 20 22 23 25 28 30 31 31 31 32 32 33 34 35 35 36 37 37 38 39 39 39 39 39 39 41 45 46 46 51 68 69 71 68 66 66 63 60 58 55
15 16 18 21 24 27 30 32 32 33 33 33 34 34 34 35 36 36 37 37 38 40 40 40 40 41 41 41 41 41 41 44 48 49 49 51 65 74 71 71 68 66 65 61
21 21 23 26 29 31 32 31 31 32 33 32 32 33 34 36 36 37 38 39 40 40 40 40 40 42 42 42 42 43 43 44 44 48 51 50 49 48 58 71 75 72 68 65
22 22 24 26 27 28 28 28 28 28 29 29 30 30 32 34 35 35 36 37 38 39 39 40 41 43 44 45 46 46 46 47 48 46 48 51 50 47 43 46 55 66 73 72
23 23 24 27 27 29 30 31 31 32 31 32 33 32 32 33 34 35 36 37 38 40 42 42 44 46 46 47 47 47 45 45 46 48 47 48 50 49 44 42 43 44 50 61
28 27 27 30 29 30 31 31 32 33 33 33 33 34 35 36 37 38 39 40 42 43 44 44 46 47 46 45 45 44 43 42 42 43 46 47 47 50 47 44 43 42 43 44
29 31 31 31 32 33 33 33 33 34 33 33 33 33 34 35 36 37 38 38 40 42 42 43 43 43 42 42 41 41 40 39 39 40 42 44 45 47 50 48 45 43 43 45
29 32 32 34 34 35 35 36 35 35 35 35 35 34 34 34 35 36 37 37 37 38 38 39 39 39 38 39 38 37 36 36 36 36 38 41 42 44 47 50 47 45 44 44
34 34 35 37 38 37 38 37 36 36 36 36 36 36 35 35 35 36 36 36 36 36 36 36 36 35 35 35 34 33 33 33 32 33 35 37 40 43 45 48 47 45 44 43
40 40 41 40 39 39 40 40 39 38 37 37 36 36 36 36 36 36 36 36 36 35 34 34 33 33 34 34 33 33 33 33 33 32 32 33 36 40 43 44 45 43 41 40
43 44 45 45 45 43 42 42 41 40 39 38 38 38 38 37 37 36 36 36 35 35 35 33 32 32 33 34 34 34 34 34 34 34 33 32 32 36 40 41 42 40 37 35
48 49 49 48 48 46 45 44 42 42 41 39 39 38 38 39 38 37 36 36 34 34 34 34 32 32 34 35 35 35 35 35 35 35 35 33 33 34 38 40 40 38 35 33
54 53 52 51 49 49 47 45 44 43 42 41 40 39 39 39 39 37 36 35 35 33 32 33 32 32 33 33 34 34 34 33 33 34 34 35 34 34 37 40 40 38 34 32
58 56 54 53 50 49 48 46 44 43 42 41 41 41 40 40 39 38 37 34 34 33 32 32 31 30 32 30 32 32 32 32 32 33 34 34 35 36 36 40 40 39 36 32
59 56 53 51 49 47 47 45 43 42 42 41 41 40 40 39 38 37 35 34 31 31 31 31 31 29 29 28 32 29 29 30 30 30 31 32 35 37 37 39 40 39 38 34
60 57 53 50 47 45 42 42 41 40 39 38 38 38 36 35 36 34 32 31 30 30 29 29 29 28 26 28 27 28 27 27 27 27 27 28 32 35 36 38 39 39 37 34
63 58 53 49 46 43 42 40 39 38 36 35 35 34 33 32 31 31 30 29 28 27 28 27 27 26 26 25 25 26 26 25 24 24 23 25 29 33 34 36 37 37 36 33
61 56 52 47 43 40 38 36 35 34 33 31 31 30 29 29 28 27 27 26 26 25 25 25 24 25 25 24 24 24 24 24 23 22 22 23 27 31 33 35 35 35 34 31
59 54 48 43 40 36 34 32 30 30 30 29 28 28 27 26 25 24 23 23 23 23 23 23 23 23 23 24 23 23 23 23 22 22 22 22 26 30 32 34 33 33 33 30
Wind_Direction
268 262 258 249 248 248 246 242 240 241 243 245 248 250 252 253 254 254 254 252 247 245 245 244 243 244 244 244 243 243 243 243 243 241 241 241 241 242 243 244 245 246 247 248
281 269 266 264 258 251 248 246 242 238 240 243 246 248 250 253 254 254 255 254 253 250 246 244 244 243 243 244 244 244 244 244 243 244 244 243 242 243 244 244 245 246 247 247
283 276 272 267 261 261 256 251 247 244 243 244 248 250 252 254 255 257 257 256 255 255 254 251 250 248 246 243 243 245 246 245 244 244 245 245 245 244 244 244 245 246 246 247
281 276 271 271 265 259 256 253 253 255 255 256 257 259 259 258 258 258 260 259 257 257 256 253 251 250 250 248 246 245 245 246 247 246 245 245 246 245 244 244 245 245 246 246
287 280 280 275 272 268 264 263 263 261 260 260 260 263 263 263 263 264 266 266 263 258 257 258 258 258 256 253 248 246 246 248 248 247 248 248 247 247 247 247 246 246 246 247
285 277 279 274 275 274 271 269 267 266 267 267 265 265 265 266 265 264 264 264 266 266 263 258 258 259 260 259 255 250 246 246 246 247 249 249 248 248 249 247 246 246 246 246
285 277 279 275 275 274 271 273 273 274 271 270 270 269 268 267 267 268 269 268 266 265 265 265 263 260 259 260 259 258 252 248 249 248 248 249 250 250 249 248 248 248 247 246
292 282 281 278 277 276 279 284 285 283 281 278 276 273 270 268 267 267 268 268 267 269 269 268 267 265 263 261 259 258 257 256 250 247 248 249 249 247 246 247 246 246 245 245
288 284 282 286 281 280 282 284 284 285 283 281 281 278 275 273 271 268 267 268 270 270 270 268 268 267 267 265 262 259 257 256 256 254 249 248 249 250 249 247 245 243 243 244
320 305 299 294 290 288 287 287 286 285 283 279 278 276 275 274 273 271 270 269 269 270 270 270 269 268 267 266 264 263 260 257 255 254 254 254 250 247 250 251 252 250 247 246
320 310 303 299 298 299 299 297 294 291 288 284 280 278 276 274 272 271 271 271 270 269 269 269 269 270 270 268 267 265 264 261 258 254 252 253 255 254 250 249 249 251 252 252
315 309 307 302 301 301 301 300 298 294 292 289 285 281 279 277 275 273 273 271 270 270 269 269 269 269 270 270 270 269 267 264 260 257 254 251 251 252 252 253 250 248 250 252
322 318 315 311 309 306 305 303 301 299 295 292 289 286 282 280 278 276 274 273 273 273 272 272 272 272 272 271 271 270 268 265 261 257 252 251 249 248 249 249 250 251 248 247
323 321 319 315 314 311 309 306 304 301 299 296 293 290 287 284 282 280 279 278 276 275 275 274 274 274 274 274 273 272 269 267 261 257 252 249 247 245 246 247 248 250 250 249
324 321 319 316 315 313 311 308 306 303 301 298 295 292 290 288 286 284 282 280 279 278 277 276 275 274 273 271 269 267 266 265 263 258 254 249 246 244 243 244 247 249 249 250
322 320 319 317 315 313 311 308 307 304 302 300 298 295 293 290 289 287 285 283 281 279 277 274 272 271 269 267 266 264 264 264 263 260 256 250 247 243 241 241 244 248 251 251
326 322 320 317 315 312 310 307 306 303 302 300 298 297 295 293 291 289 287 285 282 280 278 276 274 271 268 266 264 263 264 265 264 261 258 253 248 244 241 239 240 244 251 253
325 322 320 317 315 312 309 307 305 302 301 299 298 296 294 293 291 290 289 287 285 283 280 277 275 272 269 268 266 265 265 265 264 263 261 256 250 244 240 239 238 242 248 249
321 320 318 316 314 311 307 305 302 300 298 297 295 294 293 293 292 291 289 287 286 285 282 279 274 272 270 268 266 266 266 266 263 262 260 259 253 245 237 235 236 239 241 243
322 320 317 314 311 309 306 303 301 299 297 295 294 292 291 291 290 289 288 286 285 283 282 280 277 273 270 269 268 268 267 264 262 260 260 257 251 246 235 232 232 234 237 240
321 319 316 313 310 307 305 302 300 298 296 294 292 291 289 289 289 288 287 285 283 280 278 278 276 273 271 271 269 269 268 266 264 261 257 254 250 245 236 230 230 231 235 238
321 319 315 312 309 306 303 301 298 296 293 292 290 289 288 287 286 286 284 283 282 279 277 275 273 272 271 270 270 268 268 268 266 263 259 253 247 241 235 229 228 229 232 238
323 320 317 313 310 306 303 301 298 295 293 290 289 288 287 286 285 284 284 282 279 277 276 275 273 271 272 270 270 270 269 269 269 266 260 252 242 236 232 227 225 226 229 236
327 323 320 315 311 307 304 300 298 296 294 292 290 289 288 286 285 283 281 278 277 275 272 271 271 270 270 268 270 271 270 271 271 267 265 251 237 230 228 224 224 223 227 233
328 324 320 316 312 308 304 301 298 297 295 294 291 290 289 286 283 283 280 277 275 273 272 272 271 271 270 270 269 270 272 271 270 265 268 250 233 226 224 221 222 221 224 230
329 326 323 319 314 310 306 302 300 297 295 293 291 290 289 287 287 284 281 277 274 273 272 272 270 270 270 270 272 271 271 271 267 263 267 250 232 223 221 218 219 219 222 226
332 329 326 322 317 313 309 305 303 299 298 295 292 291 287 287 286 284 280 276 273 271 271 271 271 271 270 270 270 272 268 271 263 263 263 247 230 221 218 215 216 217 219 222